[Date Prev][Date Next][Thread Prev][Thread Next] - [Date Index][Thread Index][Author Index]

2 Line ISS Keps 1-24



ISS
1 25544U 98067A   02024.17410407  .00064949  00000-0  84135-3 0  9954
2 25544  51.6408  56.8765 0006895 348.6510 121.7622 15.58240044181563


----
Via the sarex mailing list at AMSAT.ORG courtesy of AMSAT-NA.
To unsubscribe, send "unsubscribe sarex" to Majordomo@amsat.org



AMSAT Top AMSAT Home